| time (UTC) | temp F | wind direction | speed MPH | gust MPH | rain 1hr in | rain 24hr in | rain mn in | humidity % | barometer mb |
| 20260904094237 | 80 | 74 | 3.0 | 4.0 | 0.00 | 0.00 | 0.00 | 65 | 1015.5 |
| 20260904093733 | 80 | 182 | 3.0 | 3.0 | 0.00 | 0.00 | 0.00 | 65 | 1015.2 |
| 20260904093232 | 80 | 163 | 3.0 | 4.0 | 0.00 | 0.00 | 0.00 | 64 | 1015.2 |
| 20260904092729 | 81 | 194 | 2.0 | 2.0 | 0.00 | 0.00 | 0.00 | 64 | 1015.2 |
| 20260904092225 | 81 | 137 | 3.0 | 4.0 | 0.00 | 0.00 | 0.00 | 64 | 1015.2 |
| 20260904091721 | 81 | 34 | 1.0 | 1.0 | 0.00 | 0.00 | 0.00 | 63 | 1015.1 |
| 20260904091221 | 81 | 99 | 1.0 | 2.0 | 0.00 | 0.00 | 0.00 | 63 | 1015.1 |
| 20260904090717 | 81 | 198 | 3.0 | 3.0 | 0.00 | 0.00 | 0.00 | 63 | 1015.0 |
| 20260904090212 | 81 | 7 | 0.0 | 1.0 | 0.00 | 0.00 | 0.00 | 63 | 1015.1 |
| 20260904085708 | 81 | 40 | 0.0 | 1.0 | 0.00 | 0.00 | 0.00 | 63 | 1015.0 |
| 20260904085208 | 81 | 46 | 1.0 | 2.0 | 0.00 | 0.00 | 0.00 | 63 | 1015.1 |
| 20260904084702 | 81 | 345 | 1.0 | 1.0 | 0.00 | 0.00 | 0.00 | 63 | 1014.9 |
| 20260904084159 | 81 | 21 | 1.0 | 1.0 | 0.00 | 0.00 | 0.00 | 63 | 1015.0 |
| 20260904083655 | 81 | 31 | 1.0 | 1.0 | 0.00 | 0.00 | 0.00 | 63 | 1014.8 |
| 20260904083151 | 81 | 60 | 1.0 | 2.0 | 0.00 | 0.00 | 0.00 | 63 | 1014.9 |
| 20260904082645 | 81 | 99 | 2.0 | 2.0 | 0.00 | 0.00 | 0.00 | 62 | 1014.9 |
| 20260904082141 | 82 | 78 | 2.0 | 3.0 | 0.00 | 0.00 | 0.00 | 62 | 1015.1 |
| 20260904081636 | 82 | 7 | 1.0 | 1.0 | 0.00 | 0.00 | 0.00 | 62 | 1014.8 |
| 20260904081131 | 82 | 13 | 0.0 | 1.0 | 0.00 | 0.00 | 0.00 | 61 | 1014.7 |
| 20260904080627 | 82 | 11 | 1.0 | 2.0 | 0.00 | 0.00 | 0.00 | 61 | 1014.8 |
| 20260904080123 | 82 | 148 | 3.0 | 3.0 | 0.00 | 0.00 | 0.00 | 61 | 1014.7 |
| 20260904075619 | 82 | 170 | 3.0 | 3.0 | 0.00 | 0.00 | 0.00 | 61 | 1014.7 |
| 20260904075119 | 82 | 166 | 3.0 | 3.0 | 0.00 | 0.00 | 0.00 | 61 | 1014.7 |
| 20260904074618 | 82 | 24 | 0.0 | 1.0 | 0.00 | 0.00 | 0.00 | 60 | 1014.8 |
| 20260904074113 | 82 | 232 | 2.0 | 2.0 | 0.00 | 0.00 | 0.00 | 60 | 1014.8 |
| 20260904073608 | 83 | 153 | 2.0 | 2.0 | 0.00 | 0.00 | 0.00 | 60 | 1014.6 |
| 20260904073104 | 83 | 23 | 1.0 | 1.0 | 0.00 | 0.00 | 0.00 | 60 | 1014.5 |
| 20260904072600 | 83 | 164 | 3.0 | 4.0 | 0.00 | 0.00 | 0.00 | 59 | 1014.6 |
| 20260904072055 | 83 | 140 | 2.0 | 3.0 | 0.00 | 0.00 | 0.00 | 59 | 1014.6 |
| 20260904071550 | 83 | 345 | 2.0 | 3.0 | 0.00 | 0.00 | 0.00 | 59 | 1014.8 |
| 20260904071045 | 83 | 88 | 1.0 | 1.0 | 0.00 | 0.00 | 0.00 | 59 | 1014.8 |
| 20260904070544 | 83 | 181 | 4.0 | 4.0 | 0.00 | 0.00 | 0.00 | 59 | 1014.6 |
| 20260904070039 | 83 | 126 | 3.0 | 3.0 | 0.00 | 0.00 | 0.00 | 59 | 1014.8 |
| 20260904065534 | 83 | 66 | 3.0 | 4.0 | 0.00 | 0.00 | 0.00 | 59 | 1014.6 |
| 20260904065031 | 83 | 169 | 4.0 | 6.0 | 0.00 | 0.00 | 0.00 | 59 | 1014.6 |
| 20260904064527 | 83 | 47 | 1.0 | 1.0 | 0.00 | 0.00 | 0.00 | 59 | 1014.6 |
| 20260904064026 | 83 | 45 | 2.0 | 2.0 | 0.00 | 0.00 | 0.00 | 59 | 1014.6 |
| 20260904063523 | 83 | 58 | 2.0 | 2.0 | 0.00 | 0.00 | 0.00 | 59 | 1014.7 |
| 20260904063023 | 83 | 102 | 1.0 | 1.0 | 0.00 | 0.00 | 0.00 | 59 | 1014.8 |
| 20260904062520 | 83 | 94 | 3.0 | 3.0 | 0.00 | 0.00 | 0.00 | 59 | 1014.6 |
| 20260904062015 | 83 | 13 | 1.0 | 1.0 | 0.00 | 0.00 | 0.00 | 59 | 1014.6 |
| 20260904061511 | 83 | 26 | 2.0 | 3.0 | 0.00 | 0.00 | 0.00 | 59 | 1014.4 |
| 20260904061007 | 83 | 79 | 2.0 | 2.0 | 0.00 | 0.00 | 0.00 | 59 | 1014.8 |
| 20260904060503 | 84 | 161 | 4.0 | 4.0 | 0.00 | 0.00 | 0.00 | 58 | 1014.7 |
| 20260904055958 | 84 | 158 | 4.0 | 4.0 | 0.00 | 0.00 | 0.00 | 58 | 1014.7 |
| 20260904055454 | 84 | 146 | 2.0 | 3.0 | 0.00 | 0.00 | 0.00 | 58 | 1014.5 |
| 20260904054949 | 84 | 98 | 4.0 | 4.0 | 0.00 | 0.00 | 0.00 | 57 | 1014.6 |
| 20260904054444 | 84 | 43 | 1.0 | 1.0 | 0.00 | 0.00 | 0.00 | 57 | 1014.5 |
| 20260904053940 | 84 | 175 | 2.0 | 3.0 | 0.00 | 0.00 | 0.00 | 57 | 1014.6 |
| 20260904053439 | 84 | 186 | 1.0 | 2.0 | 0.00 | 0.00 | 0.00 | 57 | 1014.4 |
| 20260904052936 | 84 | 39 | 1.0 | 1.0 | 0.00 | 0.00 | 0.00 | 56 | 1014.4 |
| 20260904052432 | 85 | 39 | 2.0 | 2.0 | 0.00 | 0.00 | 0.00 | 56 | 1014.4 |
| 20260904051927 | 85 | 115 | 3.0 | 3.0 | 0.00 | 0.00 | 0.00 | 56 | 1014.6 |
| 20260904051424 | 85 | 23 | 2.0 | 3.0 | 0.00 | 0.00 | 0.00 | 56 | 1014.5 |
| 20260904050918 | 85 | 177 | 2.0 | 2.0 | 0.00 | 0.00 | 0.00 | 55 | 1014.6 |
| 20260904050414 | 85 | 157 | 3.0 | 3.0 | 0.00 | 0.00 | 0.00 | 55 | 1014.7 |
| 20260904045914 | 85 | 165 | 4.0 | 6.0 | 0.00 | 0.00 | 0.00 | 55 | 1014.5 |
| 20260904045409 | 85 | 44 | 2.0 | 3.0 | 0.00 | 0.00 | 0.00 | 55 | 1014.4 |
| 20260904044909 | 86 | 56 | 2.0 | 2.0 | 0.00 | 0.00 | 0.00 | 54 | 1014.5 |
| 20260904044406 | 86 | 142 | 2.0 | 3.0 | 0.00 | 0.00 | 0.00 | 54 | 1014.2 |
| 20260904043901 | 86 | 40 | 2.0 | 2.0 | 0.00 | 0.00 | 0.00 | 54 | 1014.4 |
| 20260904043358 | 86 | 18 | 0.0 | 0.0 | 0.00 | 0.00 | 0.00 | 53 | 1014.5 |
| 20260904042853 | 86 | 46 | 1.0 | 1.0 | 0.00 | 0.00 | 0.00 | 53 | 1014.4 |
| 20260904042349 | 87 | 139 | 3.0 | 3.0 | 0.00 | 0.00 | 0.00 | 52 | 1014.4 |
| 20260904041843 | 87 | 28 | 0.0 | 1.0 | 0.00 | 0.00 | 0.00 | 52 | 1014.4 |
| 20260904041339 | 87 | 32 | 1.0 | 1.0 | 0.00 | 0.00 | 0.00 | 52 | 1014.2 |
| 20260904040835 | 87 | 81 | 2.0 | 2.0 | 0.00 | 0.00 | 0.00 | 51 | 1014.2 |
| 20260904040330 | 87 | 20 | 1.0 | 1.0 | 0.00 | 0.00 | 0.00 | 51 | 1014.2 |
| 20260904035826 | 87 | 28 | 2.0 | 2.0 | 0.00 | 0.00 | 0.00 | 51 | 1014.1 |
| 20260904035323 | 88 | 37 | 1.0 | 2.0 | 0.00 | 0.00 | 0.00 | 51 | 1014.1 |
| 20260904034821 | 88 | 174 | 2.0 | 2.0 | 0.00 | 0.00 | 0.00 | 50 | 1014.1 |
| 20260904034317 | 88 | 138 | 2.0 | 3.0 | 0.00 | 0.00 | 0.00 | 50 | 1014.4 |
| 20260904033813 | 88 | 32 | 0.0 | 1.0 | 0.00 | 0.00 | 0.00 | 50 | 1014.4 |
| 20260904033309 | 88 | 69 | 1.0 | 2.0 | 0.00 | 0.00 | 0.00 | 50 | 1014.5 |
| 20260904032805 | 88 | 137 | 4.0 | 4.0 | 0.00 | 0.00 | 0.00 | 49 | 1014.1 |
| 20260904032306 | 88 | 145 | 2.0 | 2.0 | 0.00 | 0.00 | 0.00 | 50 | 1014.2 |
| 20260904031758 | 88 | 47 | 1.0 | 1.0 | 0.00 | 0.00 | 0.00 | 50 | 1014.4 |
| 20260904031254 | 88 | 64 | 1.0 | 2.0 | 0.00 | 0.00 | 0.00 | 50 | 1014.2 |
| 20260904030750 | 88 | 42 | 0.0 | 1.0 | 0.00 | 0.00 | 0.00 | 50 | 1014.2 |
| 20260904030245 | 89 | 83 | 0.0 | 1.0 | 0.00 | 0.00 | 0.00 | 49 | 1014.4 |
| 20260904025741 | 89 | 27 | 0.0 | 0.0 | 0.00 | 0.00 | 0.00 | 49 | 1014.1 |
| 20260904025236 | 89 | 28 | 1.0 | 1.0 | 0.00 | 0.00 | 0.00 | 49 | 1014.0 |
| 20260904024732 | 89 | 30 | 0.0 | 0.0 | 0.00 | 0.00 | 0.00 | 49 | 1013.7 |
| 20260904024227 | 89 | 34 | 1.0 | 1.0 | 0.00 | 0.00 | 0.00 | 49 | 1014.0 |
| 20260904023723 | 89 | 40 | 2.0 | 2.0 | 0.00 | 0.00 | 0.00 | 48 | 1013.9 |
| 20260904023219 | 90 | 38 | 0.0 | 1.0 | 0.00 | 0.00 | 0.00 | 48 | 1013.8 |
| 20260904022718 | 90 | 60 | 1.0 | 1.0 | 0.00 | 0.00 | 0.00 | 47 | 1013.8 |
| 20260904022216 | 90 | 42 | 1.0 | 2.0 | 0.00 | 0.00 | 0.00 | 47 | 1013.5 |
| 20260904021711 | 90 | 46 | 0.0 | 0.0 | 0.00 | 0.00 | 0.00 | 47 | 1013.5 |
| 20260904021206 | 91 | 337 | 1.0 | 1.0 | 0.00 | 0.00 | 0.00 | 46 | 1013.3 |
| 20260904020702 | 91 | 213 | 2.0 | 3.0 | 0.00 | 0.00 | 0.00 | 46 | 1013.2 |
| 20260904020201 | 91 | 165 | 2.0 | 2.0 | 0.00 | 0.00 | 0.00 | 46 | 1013.3 |
| 20260904015700 | 91 | 20 | 0.0 | 1.0 | 0.00 | 0.00 | 0.00 | 46 | 1013.4 |
| 20260904015201 | 91 | 41 | 2.0 | 2.0 | 0.00 | 0.00 | 0.00 | 46 | 1013.2 |
| 20260904014659 | 91 | 12 | 0.0 | 1.0 | 0.00 | 0.00 | 0.00 | 46 | 1013.3 |
| 20260904014154 | 91 | 325 | 0.0 | 1.0 | 0.00 | 0.00 | 0.00 | 45 | 1013.1 |
| 20260904013652 | 92 | 4 | 0.0 | 1.0 | 0.00 | 0.00 | 0.00 | 45 | 1012.9 |
| 20260904013147 | 92 | 148 | 2.0 | 3.0 | 0.00 | 0.00 | 0.00 | 44 | 1012.8 |
| 20260904012643 | 92 | 4 | 1.0 | 1.0 | 0.00 | 0.00 | 0.00 | 44 | 1012.8 |
| 20260904012141 | 93 | 32 | 1.0 | 2.0 | 0.00 | 0.00 | 0.00 | 44 | 1012.8 |
| 20260904011640 | 93 | 327 | 0.0 | 1.0 | 0.00 | 0.00 | 0.00 | 43 | 1012.8 |
| 20260904011137 | 93 | 110 | 3.0 | 3.0 | 0.00 | 0.00 | 0.00 | 43 | 1012.7 |
| 20260904010632 | 93 | 181 | 2.0 | 3.0 | 0.00 | 0.00 | 0.00 | 42 | 1012.6 |
| 20260904010129 | 94 | 31 | 0.0 | 1.0 | 0.00 | 0.00 | 0.00 | 42 | 1012.6 |
| 20260904005624 | 94 | 126 | 2.0 | 3.0 | 0.00 | 0.00 | 0.00 | 41 | 1012.7 |
| 20260904005119 | 94 | 203 | 4.0 | 4.0 | 0.00 | 0.00 | 0.00 | 41 | 1012.5 |
| 20260904004615 | 95 | 81 | 3.0 | 3.0 | 0.00 | 0.00 | 0.00 | 41 | 1012.6 |
| 20260904004114 | 95 | 343 | 1.0 | 1.0 | 0.00 | 0.00 | 0.00 | 40 | 1012.5 |
| 20260904003610 | 95 | 125 | 4.0 | 4.0 | 0.00 | 0.00 | 0.00 | 40 | 1012.5 |
| 20260904003106 | 95 | 140 | 2.0 | 3.0 | 0.00 | 0.00 | 0.00 | 40 | 1012.4 |
| 20260904002602 | 96 | 201 | 2.0 | 3.0 | 0.00 | 0.00 | 0.00 | 39 | 1012.4 |
| 20260904002102 | 96 | 42 | 2.0 | 3.0 | 0.00 | 0.00 | 0.00 | 39 | 1012.6 |
| 20260904001557 | 96 | 97 | 4.0 | 4.0 | 0.00 | 0.00 | 0.00 | 39 | 1012.4 |
| 20260904001056 | 96 | 180 | 1.0 | 2.0 | 0.00 | 0.00 | 0.00 | 38 | 1012.4 |
| 20260904000551 | 97 | 205 | 5.0 | 6.0 | 0.00 | 0.00 | 0.00 | 38 | 1012.4 |
| 20260904000047 | 97 | 211 | 5.0 | 6.0 | 0.00 | 0.00 | 0.00 | 37 | 1012.4 |
| 20260903235542 | 98 | 50 | 3.0 | 3.0 | 0.00 | 0.00 | 0.00 | 37 | 1012.3 |
| 20260903235037 | 98 | 199 | 2.0 | 3.0 | 0.00 | 0.00 | 0.00 | 36 | 1012.3 |
| 20260903234533 | 98 | 37 | 1.0 | 2.0 | 0.00 | 0.00 | 0.00 | 37 | 1012.3 |
| 20260903234028 | 98 | 141 | 4.0 | 4.0 | 0.00 | 0.00 | 0.00 | 37 | 1012.3 |
| 20260903233524 | 98 | 252 | 4.0 | 4.0 | 0.00 | 0.00 | 0.00 | 36 | 1012.4 |
| 20260903233020 | 98 | 109 | 4.0 | 6.0 | 0.00 | 0.00 | 0.00 | 36 | 1012.4 |
| 20260903232514 | 99 | 186 | 8.0 | 9.0 | 0.00 | 0.00 | 0.00 | 35 | 1012.4 |
| 20260903232009 | 99 | 171 | 4.0 | 6.0 | 0.00 | 0.00 | 0.00 | 35 | 1012.2 |
| 20260903231503 | 99 | 132 | 7.0 | 10.0 | 0.00 | 0.00 | 0.00 | 35 | 1012.3 |
| 20260903230958 | 100 | 184 | 5.0 | 7.0 | 0.00 | 0.00 | 0.00 | 34 | 1012.3 |
| 20260903230454 | 101 | 174 | 3.0 | 4.0 | 0.00 | 0.00 | 0.00 | 34 | 1012.1 |
| 20260903225951 | 100 | 222 | 2.0 | 3.0 | 0.00 | 0.00 | 0.00 | 34 | 1012.2 |
| 20260903225445 | 100 | 239 | 4.0 | 4.0 | 0.00 | 0.00 | 0.00 | 34 | 1012.2 |
| 20260903224942 | 100 | 249 | 4.0 | 4.0 | 0.00 | 0.00 | 0.00 | 34 | 1012.2 |
| 20260903224437 | 101 | 146 | 3.0 | 3.0 | 0.00 | 0.00 | 0.00 | 34 | 1012.2 |
| 20260903223933 | 101 | 106 | 3.0 | 4.0 | 0.00 | 0.00 | 0.00 | 34 | 1012.0 |
| 20260903223432 | 101 | 358 | 2.0 | 2.0 | 0.00 | 0.00 | 0.00 | 33 | 1012.1 |
| 20260903222931 | 101 | 314 | 2.0 | 3.0 | 0.00 | 0.00 | 0.00 | 34 | 1012.2 |
| 20260903222427 | 100 | 161 | 2.0 | 3.0 | 0.00 | 0.00 | 0.00 | 35 | 1012.0 |
| 20260903221921 | 102 | 218 | 3.0 | 4.0 | 0.00 | 0.00 | 0.00 | 33 | 1012.1 |
| 20260903221420 | 101 | 177 | 3.0 | 3.0 | 0.00 | 0.00 | 0.00 | 33 | 1012.1 |
| 20260903220918 | 100 | 107 | 6.0 | 7.0 | 0.00 | 0.00 | 0.00 | 34 | 1012.0 |
| 20260903220412 | 100 | 320 | 2.0 | 4.0 | 0.00 | 0.00 | 0.00 | 34 | 1012.1 |
| 20260903215909 | 100 | 204 | 5.0 | 8.0 | 0.00 | 0.00 | 0.00 | 34 | 1012.3 |
| 20260903215407 | 101 | 190 | 7.0 | 9.0 | 0.00 | 0.00 | 0.00 | 33 | 1012.3 |
| 20260903214905 | 101 | 210 | 4.0 | 7.0 | 0.00 | 0.00 | 0.00 | 33 | 1012.4 |
| 20260903214401 | 100 | 220 | 3.0 | 4.0 | 0.00 | 0.00 | 0.00 | 33 | 1012.4 |
| 20260903213901 | 100 | 116 | 6.0 | 8.0 | 0.00 | 0.00 | 0.00 | 33 | 1012.5 |
| 20260903213356 | 101 | 201 | 7.0 | 9.0 | 0.00 | 0.00 | 0.00 | 34 | 1012.6 |
| 20260903212851 | 100 | 336 | 2.0 | 3.0 | 0.00 | 0.00 | 0.00 | 34 | 1012.7 |
| 20260903212348 | 100 | 74 | 2.0 | 3.0 | 0.00 | 0.00 | 0.00 | 34 | 1012.8 |
| 20260903211847 | 101 | 52 | 3.0 | 3.0 | 0.00 | 0.00 | 0.00 | 34 | 1012.8 |
| 20260903211343 | 100 | 227 | 7.0 | 9.0 | 0.00 | 0.00 | 0.00 | 33 | 1012.8 |
| 20260903210839 | 100 | 216 | 3.0 | 3.0 | 0.00 | 0.00 | 0.00 | 34 | 1012.7 |
| 20260903210339 | 100 | 209 | 6.0 | 7.0 | 0.00 | 0.00 | 0.00 | 34 | 1012.8 |
| 20260903205838 | 101 | 216 | 6.0 | 9.0 | 0.00 | 0.00 | 0.00 | 33 | 1012.8 |
| 20260903205338 | 101 | 80 | 2.0 | 3.0 | 0.00 | 0.00 | 0.00 | 33 | 1013.0 |
| 20260903204833 | 101 | 207 | 4.0 | 6.0 | 0.00 | 0.00 | 0.00 | 34 | 1012.6 |
| 20260903204330 | 101 | 141 | 3.0 | 4.0 | 0.00 | 0.00 | 0.00 | 33 | 1013.1 |
| 20260903203825 | 100 | 214 | 3.0 | 4.0 | 0.00 | 0.00 | 0.00 | 34 | 1013.1 |
| 20260903203321 | 100 | 202 | 6.0 | 7.0 | 0.00 | 0.00 | 0.00 | 33 | 1013.2 |
| 20260903202820 | 99 | 234 | 4.0 | 6.0 | 0.00 | 0.00 | 0.00 | 35 | 1013.1 |
| 20260903202316 | 100 | 199 | 8.0 | 9.0 | 0.00 | 0.00 | 0.00 | 35 | 1013.2 |
| 20260903201815 | 101 | 229 | 2.0 | 2.0 | 0.00 | 0.00 | 0.00 | 33 | 1013.2 |
| 20260903201311 | 100 | 107 | 3.0 | 3.0 | 0.00 | 0.00 | 0.00 | 35 | 1013.2 |
| 20260903200809 | 100 | 206 | 5.0 | 7.0 | 0.00 | 0.00 | 0.00 | 34 | 1013.4 |
| 20260903200305 | 99 | 102 | 3.0 | 6.0 | 0.00 | 0.00 | 0.00 | 36 | 1013.3 |
| 20260903195800 | 99 | 176 | 4.0 | 6.0 | 0.00 | 0.00 | 0.00 | 36 | 1013.3 |
| 20260903195256 | 99 | 181 | 5.0 | 7.0 | 0.00 | 0.00 | 0.00 | 36 | 1013.5 |
| 20260903194751 | 99 | 231 | 4.0 | 4.0 | 0.00 | 0.00 | 0.00 | 36 | 1013.4 |
| 20260903194247 | 98 | 106 | 5.0 | 7.0 | 0.00 | 0.00 | 0.00 | 35 | 1013.5 |
| 20260903193743 | 99 | 111 | 5.0 | 9.0 | 0.00 | 0.00 | 0.00 | 37 | 1013.5 |
| 20260903193238 | 99 | 194 | 3.0 | 4.0 | 0.00 | 0.00 | 0.00 | 36 | 1013.8 |
| 20260903192734 | 98 | 209 | 2.0 | 3.0 | 0.00 | 0.00 | 0.00 | 38 | 1013.8 |
| 20260903192229 | 98 | 179 | 9.0 | 10.0 | 0.00 | 0.00 | 0.00 | 37 | 1013.9 |
| 20260903191726 | 99 | 171 | 7.0 | 9.0 | 0.00 | 0.00 | 0.00 | 37 | 1013.9 |
| 20260903191221 | 98 | 228 | 6.0 | 7.0 | 0.00 | 0.00 | 0.00 | 38 | 1014.0 |
| 20260903190715 | 97 | 139 | 6.0 | 10.0 | 0.00 | 0.00 | 0.00 | 38 | 1014.1 |
| 20260903190215 | 97 | 180 | 6.0 | 8.0 | 0.00 | 0.00 | 0.00 | 38 | 1014.0 |
| 20260903185709 | 98 | 111 | 6.0 | 8.0 | 0.00 | 0.00 | 0.00 | 37 | 1014.4 |
| 20260903185204 | 97 | 33 | 1.0 | 1.0 | 0.00 | 0.00 | 0.00 | 38 | 1014.1 |
| 20260903184701 | 98 | 200 | 9.0 | 13.0 | 0.00 | 0.00 | 0.00 | 37 | 1014.4 |
| 20260903184157 | 97 | 174 | 6.0 | 9.0 | 0.00 | 0.00 | 0.00 | 39 | 1014.1 |
| 20260903183656 | 97 | 207 | 8.0 | 10.0 | 0.00 | 0.00 | 0.00 | 39 | 1014.5 |
| 20260903183151 | 96 | 245 | 6.0 | 8.0 | 0.00 | 0.00 | 0.00 | 40 | 1014.8 |
| 20260903182650 | 96 | 189 | 6.0 | 9.0 | 0.00 | 0.00 | 0.00 | 40 | 1014.7 |
| 20260903182146 | 96 | 201 | 7.0 | 10.0 | 0.00 | 0.00 | 0.00 | 40 | 1014.7 |
| 20260903181644 | 96 | 209 | 3.0 | 4.0 | 0.00 | 0.00 | 0.00 | 41 | 1014.8 |
| 20260903181138 | 96 | 172 | 4.0 | 6.0 | 0.00 | 0.00 | 0.00 | 41 | 1014.7 |
| 20260903180634 | 97 | 174 | 4.0 | 6.0 | 0.00 | 0.00 | 0.00 | 41 | 1014.9 |
| 20260903180128 | 96 | 237 | 5.0 | 9.0 | 0.00 | 0.00 | 0.00 | 41 | 1014.9 |
| 20260903175627 | 96 | 115 | 2.0 | 4.0 | 0.00 | 0.00 | 0.00 | 41 | 1015.0 |
| 20260903175126 | 95 | 116 | 5.0 | 6.0 | 0.00 | 0.00 | 0.00 | 41 | 1015.1 |
| 20260903174621 | 95 | 203 | 4.0 | 6.0 | 0.00 | 0.00 | 0.00 | 42 | 1015.3 |
| 20260903174116 | 95 | 224 | 6.0 | 10.0 | 0.00 | 0.00 | 0.00 | 42 | 1015.4 |
| 20260903173611 | 95 | 336 | 4.0 | 6.0 | 0.00 | 0.00 | 0.00 | 42 | 1015.5 |
| 20260903173108 | 95 | 283 | 2.0 | 3.0 | 0.00 | 0.00 | 0.00 | 42 | 1015.6 |
| 20260903172603 | 95 | 196 | 5.0 | 8.0 | 0.00 | 0.00 | 0.00 | 42 | 1015.6 |
| 20260903172058 | 95 | 90 | 2.0 | 3.0 | 0.00 | 0.00 | 0.00 | 43 | 1015.7 |
| 20260903171558 | 96 | 240 | 4.0 | 7.0 | 0.00 | 0.00 | 0.00 | 42 | 1015.6 |
| 20260903171054 | 94 | 68 | 1.0 | 2.0 | 0.00 | 0.00 | 0.00 | 44 | 1015.8 |
| 20260903170552 | 93 | 204 | 3.0 | 3.0 | 0.00 | 0.00 | 0.00 | 45 | 1015.7 |
| 20260903170048 | 94 | 352 | 5.0 | 8.0 | 0.00 | 0.00 | 0.00 | 45 | 1015.8 |
| 20260903165545 | 94 | 202 | 2.0 | 4.0 | 0.00 | 0.00 | 0.00 | 44 | 1016.0 |
| 20260903165040 | 93 | 172 | 6.0 | 8.0 | 0.00 | 0.00 | 0.00 | 45 | 1015.9 |
| 20260903164535 | 92 | 215 | 2.0 | 4.0 | 0.00 | 0.00 | 0.00 | 46 | 1015.9 |
| 20260903164031 | 92 | 120 | 5.0 | 6.0 | 0.00 | 0.00 | 0.00 | 46 | 1016.2 |
| 20260903163526 | 92 | 152 | 5.0 | 7.0 | 0.00 | 0.00 | 0.00 | 46 | 1015.9 |
| 20260903163022 | 92 | 202 | 5.0 | 6.0 | 0.00 | 0.00 | 0.00 | 46 | 1016.2 |
| 20260903162518 | 92 | 189 | 4.0 | 7.0 | 0.00 | 0.00 | 0.00 | 46 | 1016.1 |
| 20260903162013 | 91 | 198 | 7.0 | 9.0 | 0.00 | 0.00 | 0.00 | 47 | 1016.0 |
| 20260903161509 | 91 | 168 | 5.0 | 7.0 | 0.00 | 0.00 | 0.00 | 47 | 1016.0 |
| 20260903161005 | 91 | 162 | 6.0 | 7.0 | 0.00 | 0.00 | 0.00 | 47 | 1016.0 |
| 20260903160503 | 91 | 157 | 7.0 | 9.0 | 0.00 | 0.00 | 0.00 | 47 | 1016.1 |
| 20260903160003 | 91 | 272 | 6.0 | 8.0 | 0.00 | 0.00 | 0.00 | 48 | 1016.1 |
| 20260903155502 | 91 | 185 | 4.0 | 7.0 | 0.00 | 0.00 | 0.00 | 48 | 1016.2 |
| 20260903154958 | 89 | 234 | 4.0 | 4.0 | 0.00 | 0.00 | 0.00 | 51 | 1016.5 |
| 20260903154454 | 89 | 213 | 5.0 | 7.0 | 0.00 | 0.00 | 0.00 | 50 | 1016.2 |
| 20260903153949 | 90 | 189 | 10.0 | 10.0 | 0.00 | 0.00 | 0.00 | 49 | 1016.3 |
| 20260903153445 | 89 | 178 | 7.0 | 9.0 | 0.00 | 0.00 | 0.00 | 50 | 1016.3 |
| 20260903152941 | 89 | 162 | 7.0 | 10.0 | 0.00 | 0.00 | 0.00 | 50 | 1016.1 |
| 20260903152437 | 88 | 350 | 3.0 | 3.0 | 0.00 | 0.00 | 0.00 | 51 | 1016.3 |
| 20260903151933 | 89 | 185 | 6.0 | 7.0 | 0.00 | 0.00 | 0.00 | 51 | 1016.5 |
| 20260903151427 | 88 | 210 | 4.0 | 7.0 | 0.00 | 0.00 | 0.00 | 52 | 1016.2 |
| 20260903150922 | 88 | 210 | 6.0 | 7.0 | 0.00 | 0.00 | 0.00 | 52 | 1016.3 |
| 20260903150417 | 88 | 193 | 5.0 | 7.0 | 0.00 | 0.00 | 0.00 | 52 | 1016.2 |
| 20260903145917 | 88 | 194 | 4.0 | 6.0 | 0.00 | 0.00 | 0.00 | 52 | 1016.3 |
| 20260903145412 | 87 | 34 | 2.0 | 3.0 | 0.00 | 0.00 | 0.00 | 54 | 1016.4 |
| 20260903144912 | 87 | 195 | 7.0 | 10.0 | 0.00 | 0.00 | 0.00 | 53 | 1016.4 |
| 20260903144407 | 87 | 186 | 4.0 | 6.0 | 0.00 | 0.00 | 0.00 | 54 | 1016.4 |
| 20260903143902 | 87 | 147 | 10.0 | 13.0 | 0.00 | 0.00 | 0.00 | 55 | 1016.6 |
| 20260903143359 | 87 | 206 | 5.0 | 7.0 | 0.00 | 0.00 | 0.00 | 56 | 1016.1 |
| 20260903142859 | 86 | 157 | 6.0 | 9.0 | 0.00 | 0.00 | 0.00 | 57 | 1016.4 |
| 20260903142355 | 86 | 208 | 5.0 | 6.0 | 0.00 | 0.00 | 0.00 | 58 | 1016.5 |
| 20260903141851 | 86 | 178 | 5.0 | 8.0 | 0.00 | 0.00 | 0.00 | 58 | 1016.7 |
| 20260903141346 | 85 | 253 | 4.0 | 6.0 | 0.00 | 0.00 | 0.00 | 58 | 1016.5 |
| 20260903140841 | 85 | 142 | 7.0 | 9.0 | 0.00 | 0.00 | 0.00 | 59 | 1016.5 |
| 20260903140336 | 85 | 209 | 6.0 | 8.0 | 0.00 | 0.00 | 0.00 | 59 | 1016.5 |
| 20260903135832 | 84 | 238 | 4.0 | 4.0 | 0.00 | 0.00 | 0.00 | 60 | 1016.6 |
| 20260903135328 | 84 | 162 | 3.0 | 3.0 | 0.00 | 0.00 | 0.00 | 61 | 1016.6 |
| 20260903134826 | 84 | 325 | 4.0 | 7.0 | 0.00 | 0.00 | 0.00 | 61 | 1016.5 |
| 20260903134322 | 84 | 183 | 7.0 | 9.0 | 0.00 | 0.00 | 0.00 | 61 | 1016.5 |
| 20260903133820 | 83 | 198 | 7.0 | 8.0 | 0.00 | 0.00 | 0.00 | 62 | 1016.8 |
| 20260903133316 | 83 | 169 | 3.0 | 4.0 | 0.00 | 0.00 | 0.00 | 63 | 1016.8 |
| 20260903132816 | 82 | 213 | 4.0 | 6.0 | 0.00 | 0.00 | 0.00 | 64 | 1016.5 |
| 20260903132312 | 82 | 77 | 4.0 | 6.0 | 0.00 | 0.00 | 0.00 | 65 | 1016.6 |
| 20260903131806 | 82 | 201 | 3.0 | 4.0 | 0.00 | 0.00 | 0.00 | 65 | 1016.5 |
| 20260903131306 | 82 | 201 | 3.0 | 4.0 | 0.00 | 0.00 | 0.00 | 65 | 1016.4 |
| 20260903130800 | 81 | 60 | 2.0 | 3.0 | 0.00 | 0.00 | 0.00 | 66 | 1016.4 |
| 20260903130255 | 81 | 184 | 3.0 | 6.0 | 0.00 | 0.00 | 0.00 | 67 | 1016.7 |
| 20260903125753 | 81 | 194 | 5.0 | 6.0 | 0.00 | 0.00 | 0.00 | 67 | 1016.6 |
| 20260903125249 | 80 | 150 | 7.0 | 9.0 | 0.00 | 0.00 | 0.00 | 67 | 1016.7 |
| 20260903124748 | 80 | 61 | 4.0 | 3.0 | 0.00 | 0.00 | 0.00 | 67 | 1016.3 |
| 20260903124244 | 80 | 166 | 4.0 | 7.0 | 0.00 | 0.00 | 0.00 | 67 | 1016.4 |
| 20260903123742 | 80 | 62 | 2.0 | 2.0 | 0.00 | 0.00 | 0.00 | 68 | 1016.4 |
| 20260903123242 | 80 | 176 | 5.0 | 8.0 | 0.00 | 0.00 | 0.00 | 68 | 1016.4 |
| 20260903122741 | 80 | 248 | 2.0 | 3.0 | 0.00 | 0.00 | 0.00 | 68 | 1016.4 |
| 20260903122236 | 79 | 62 | 1.0 | 2.0 | 0.00 | 0.00 | 0.00 | 68 | 1016.2 |
| 20260903121734 | 79 | 71 | 2.0 | 3.0 | 0.00 | 0.00 | 0.00 | 69 | 1016.1 |
| 20260903121230 | 79 | 179 | 4.0 | 4.0 | 0.00 | 0.00 | 0.00 | 69 | 1016.2 |
| 20260903120730 | 79 | 54 | 2.0 | 2.0 | 0.00 | 0.00 | 0.00 | 69 | 1016.2 |
| 20260903120224 | 79 | 184 | 4.0 | 6.0 | 0.00 | 0.00 | 0.00 | 69 | 1016.1 |
| 20260903115723 | 79 | 148 | 2.0 | 3.0 | 0.00 | 0.00 | 0.00 | 68 | 1016.1 |
| 20260903115219 | 80 | 185 | 2.0 | 2.0 | 0.00 | 0.00 | 0.00 | 68 | 1016.0 |
| 20260903114713 | 80 | 94 | 2.0 | 3.0 | 0.00 | 0.00 | 0.00 | 68 | 1016.0 |
| 20260903114209 | 80 | 207 | 5.0 | 6.0 | 0.00 | 0.00 | 0.00 | 68 | 1015.9 |
| 20260903113708 | 80 | 210 | 2.0 | 3.0 | 0.00 | 0.00 | 0.00 | 67 | 1016.0 |
| 20260903113205 | 80 | 188 | 3.0 | 3.0 | 0.00 | 0.00 | 0.00 | 67 | 1016.1 |
| 20260903112701 | 80 | 92 | 3.0 | 4.0 | 0.00 | 0.00 | 0.00 | 66 | 1016.2 |
| 20260903112156 | 80 | 37 | 2.0 | 3.0 | 0.00 | 0.00 | 0.00 | 66 | 1015.9 |
| 20260903111654 | 80 | 165 | 5.0 | 7.0 | 0.00 | 0.00 | 0.00 | 66 | 1016.0 |
| 20260903111150 | 80 | 97 | 2.0 | 2.0 | 0.00 | 0.00 | 0.00 | 66 | 1016.1 |
| 20260903110646 | 81 | 213 | 6.0 | 9.0 | 0.00 | 0.00 | 0.00 | 65 | 1016.0 |
| 20260903110142 | 81 | 160 | 2.0 | 2.0 | 0.00 | 0.00 | 0.00 | 65 | 1016.0 |
| 20260903105636 | 81 | 210 | 4.0 | 4.0 | 0.00 | 0.00 | 0.00 | 65 | 1016.0 |
| 20260903105131 | 80 | 200 | 5.0 | 7.0 | 0.00 | 0.00 | 0.00 | 65 | 1015.8 |
| 20260903104631 | 80 | 122 | 4.0 | 7.0 | 0.00 | 0.00 | 0.00 | 66 | 1015.8 |
| 20260903104126 | 80 | 172 | 4.0 | 7.0 | 0.00 | 0.00 | 0.00 | 65 | 1015.9 |
| 20260903103622 | 80 | 110 | 2.0 | 2.0 | 0.00 | 0.00 | 0.00 | 65 | 1015.9 |
| 20260903103118 | 81 | 195 | 3.0 | 4.0 | 0.00 | 0.00 | 0.00 | 65 | 1015.8 |
| 20260903102613 | 81 | 205 | 4.0 | 7.0 | 0.00 | 0.00 | 0.00 | 65 | 1015.9 |
| 20260903102113 | 81 | 47 | 3.0 | 3.0 | 0.00 | 0.00 | 0.00 | 65 | 1015.9 |
| 20260903101613 | 81 | 134 | 3.0 | 4.0 | 0.00 | 0.00 | 0.00 | 65 | 1015.7 |
| 20260903101108 | 81 | 133 | 2.0 | 3.0 | 0.00 | 0.00 | 0.00 | 65 | 1015.8 |
| 20260903100609 | 81 | 144 | 6.0 | 8.0 | 0.00 | 0.00 | 0.00 | 64 | 1015.8 |
| 20260903100108 | 81 | 174 | 3.0 | 3.0 | 0.00 | 0.00 | 0.00 | 64 | 1015.6 |
| 20260903095605 | 81 | 154 | 3.0 | 4.0 | 0.00 | 0.00 | 0.00 | 64 | 1015.7 |
| 20260903095105 | 81 | 39 | 2.0 | 4.0 | 0.00 | 0.00 | 0.00 | 64 | 1015.7 |